FW2647 Weather Reports


time (UTC)temp
C
wind
direction
speed
KPH
gust
KPH
rain 1hr
cm
rain 24hr
cm
rain mn
cm
humidity
%
barometer
mb
20260506045008 5 320 4.8 9.7 0.00 0.00 0.00 99 1010.7
20260506044005 5 321 1.6 4.8 0.00 0.00 0.00 99 1010.8
20260506043005 5 338 3.2 6.4 0.00 0.00 0.00 99 1010.7
20260506042008 5 340 3.2 6.4 0.00 0.00 0.00 99 1010.8
20260506041006 5 315 4.8 6.4 0.00 0.00 0.00 99 1010.6
20260506040004 5 323 4.8 6.4 0.00 0.00 0.00 99 1010.8
20260506035007 5 316 3.2 6.4 0.00 0.00 0.00 99 1010.8
20260506034005 5 328 4.8 8.0 0.00 0.00 0.00 99 1010.9
20260506033009 6 333 4.8 8.0 0.00 0.00 0.00 99 1011.1
20260506032219 6 315 4.8 8.0 0.00 0.00 0.00 99 1011.1
20260506031003 6 333 3.2 8.0 0.00 0.00 0.00 99 1011.2
20260506030005 6 336 4.8 8.0 0.00 0.00 0.00 99 1011.3
20260506025004 6 324 4.8 6.4 0.00 0.00 0.00 99 1011.4
20260506024005 6 338 4.8 8.0 0.00 0.00 0.00 99 1011.5
20260506023218 6 338 6.4 11.3 0.00 0.00 0.00 99 1011.5
20260506022003 6 319 4.8 9.7 0.00 0.00 0.00 99 1011.6
20260506021006 6 315 4.8 11.3 0.00 0.00 0.00 99 1011.7
20260506020004 6 323 4.8 9.7 0.00 0.00 0.00 99 1011.7
20260506015005 7 318 4.8 8.0 0.00 0.00 0.00 99 1011.7
20260506014003 7 316 3.2 6.4 0.00 0.00 0.00 98 1011.7
20260506013214 7 316 3.2 8.0 0.00 0.00 0.00 98 1011.7
20260506012006 7 315 3.2 8.0 0.00 0.00 0.00 98 1011.9
20260506011006 7 313 3.2 6.4 0.00 0.00 0.00 94 1011.9
20260506010004 7 334 1.6 4.8 0.00 0.00 0.00 94 1011.9
20260506005005 7 4 1.6 6.4 0.00 0.00 0.00 94 1011.9
20260506004003 7 9 3.2 6.4 0.00 0.00 0.00 94 1012.0
20260506003005 7 338 4.8 16.1 0.00 0.00 0.00 93 1012.3
20260506002005 7 353 3.2 9.7 0.00 0.00 0.00 93 1012.2
20260506001006 7 39 6.4 9.7 0.00 0.00 0.00 93 1012.2
20260506000219 7 13 6.4 11.3 0.00 0.00 0.00 92 1012.4
20260505235219 7 24 6.4 11.3 0.00 0.00 0.00 92 1012.3
20260505234005 7 36 4.8 8.0 0.00 0.00 0.00 91 1012.3
20260505233003 7 2 3.2 9.7 0.00 0.00 0.00 91 1012.5
20260505232003 7 48 4.8 8.0 0.00 0.00 0.00 91 1012.6
20260505231005 7 22 8.0 12.9 0.00 0.00 0.00 90 1012.7
20260505230003 7 22 4.8 9.7 0.00 0.00 0.00 90 1012.7
20260505225004 8 30 4.8 11.3 0.00 0.00 0.00 90 1012.7
20260505224003 8 42 6.4 9.7 0.00 0.00 0.00 88 1012.6
20260505223005 8 34 6.4 9.7 0.00 0.00 0.00 87 1012.7
20260505222005 8 13 6.4 14.5 0.00 0.00 0.00 86 1012.8
20260505221005 8 43 6.4 9.7 0.00 0.00 0.00 85 1012.7
20260505220007 8 23 6.4 14.5 0.00 0.00 0.00 84 1012.7
20260505215004 8 33 6.4 12.9 0.00 0.00 0.00 84 1012.8
20260505214005 8 19 6.4 12.9 0.00 0.00 0.00 83 1012.8
20260505213217 8 28 4.8 11.3 0.00 0.00 0.00 83 1013.0
20260505212007 8 15 6.4 11.3 0.00 0.00 0.00 82 1013.0
20260505211006 8 42 6.4 12.9 0.00 0.00 0.00 82 1013.0
20260505210003 9 48 6.4 12.9 0.00 0.00 0.00 81 1013.0
20260505205008 9 41 6.4 11.3 0.00 0.00 0.00 80 1013.0
20260505204004 9 35 6.4 12.9 0.00 0.00 0.00 80 1013.0
20260505203217 9 43 6.4 12.9 0.00 0.00 0.00 79 1012.9
20260505202006 10 50 6.4 12.9 0.00 0.00 0.00 78 1012.8
20260505201006 10 50 9.7 14.5 0.00 0.00 0.00 77 1012.7
20260505200215 10 44 9.7 16.1 0.00 0.00 0.00 76 1012.7
20260505195005 10 47 9.7 17.7 0.00 0.00 0.00 75 1012.7
20260505194003 10 47 8.0 16.1 0.00 0.00 0.00 74 1012.5
20260505193009 11 62 8.0 16.1 0.00 0.00 0.00 74 1012.5
20260505192006 11 43 4.8 11.3 0.00 0.00 0.00 73 1012.4
20260505191003 11 65 6.4 11.3 0.00 0.00 0.00 71 1012.2
20260505190216 11 81 6.4 11.3 0.00 0.00 0.00 71 1012.3
20260505185006 11 84 4.8 9.7 0.00 0.00 0.00 70 1012.3
20260505184005 12 68 6.4 11.3 0.00 0.00 0.00 69 1012.2
20260505183006 12 89 8.0 17.7 0.00 0.00 0.00 67 1012.3
20260505182004 12 56 11.3 20.9 0.00 0.00 0.00 61 1012.2
20260505181004 13 81 8.0 11.3 0.00 0.00 0.00 61 1012.2
20260505180006 14 66 8.0 12.9 0.00 0.00 0.00 60 1012.2
20260505175008 14 84 6.4 12.9 0.00 0.00 0.00 61 1012.1
20260505174003 14 74 4.8 11.3 0.00 0.00 0.00 65 1012.1
20260505173003 13 106 4.8 9.7 0.00 0.00 0.00 63 1012.1
20260505172006 13 130 4.8 11.3 0.00 0.00 0.00 63 1012.2
20260505171003 13 64 4.8 9.7 0.00 0.00 0.00 61 1012.3
20260505170006 14 127 4.8 9.7 0.00 0.00 0.00 61 1012.3
20260505165213 14 117 4.8 12.9 0.00 0.00 0.00 60 1012.4
20260505164005 15 103 4.8 12.9 0.00 0.00 0.00 58 1012.3
20260505163220 15 97 6.4 17.7 0.00 0.00 0.00 57 1012.3
20260505162216 15 92 6.4 16.1 0.00 0.00 0.00 58 1012.3
20260505161006 15 144 6.4 12.9 0.00 0.00 0.00 55 1012.2
20260505153220 15 83 6.4 12.9 0.00 0.00 0.00 54 1012.2
20260505152003 15 73 8.0 17.7 0.00 0.00 0.00 52 1012.2
20260505151003 16 106 6.4 17.7 0.00 0.00 0.00 51 1012.3
20260505124005 17 113 6.4 17.7 0.00 0.00 0.00 47 1012.3
20260505123003 17 129 8.0 14.5 0.00 0.00 0.00 44 1012.4
20260505122006 17 131 4.8 11.3 0.00 0.00 0.00 47 1012.4
20260505121005 17 136 6.4 11.3 0.00 0.00 0.00 46 1012.4
20260505120215 17 135 6.4 17.7 0.00 0.00 0.00 46 1012.3
20260505115216 17 69 6.4 12.9 0.00 0.00 0.00 47 1012.4
20260505114005 17 119 6.4 16.1 0.00 0.00 0.00 51 1012.5
20260505113218 16 137 6.4 16.1 0.00 0.00 0.00 51 1012.3
20260505112005 17 89 8.0 14.5 0.00 0.00 0.00 52 1012.4
20260505111003 17 105 6.4 14.5 0.00 0.00 0.00 49 1012.5
20260505102003 17 65 4.8 14.5 0.00 0.00 0.00 52 1012.6
20260505101215 17 12 6.4 14.5 0.00 0.00 0.00 52 1012.7
20260505100003 16 51 6.4 12.9 0.00 0.00 0.00 54 1012.6
20260505095004 16 93 6.4 17.7 0.00 0.00 0.00 55 1012.6
20260505094007 16 72 6.4 17.7 0.00 0.00 0.00 54 1012.6
20260505093214 16 106 6.4 12.9 0.00 0.00 0.00 61 1012.5
20260505092003 15 77 4.8 14.5 0.00 0.00 0.00 61 1012.5
20260505091005 15 63 8.0 16.1 0.00 0.00 0.00 61 1012.6
20260505090009 15 42 6.4 16.1 0.00 0.00 0.00 62 1012.6
20260505085005 14 67 6.4 14.5 0.00 0.00 0.00 63 1012.6
20260505084219 14 72 6.4 12.9 0.00 0.00 0.00 62 1012.5
20260505083004 13 52 8.0 14.5 0.00 0.00 0.00 66 1012.5
20260505082005 13 65 6.4 12.9 0.00 0.00 0.00 65 1012.7
20260505081005 12 57 8.0 12.9 0.00 0.00 0.00 66 1012.4
20260505080005 12 46 8.0 12.9 0.00 0.00 0.00 66 1012.5
20260505075003 12 45 6.4 12.9 0.00 0.00 0.00 68 1012.3
20260505074003 12 51 6.4 12.9 0.00 0.00 0.00 72 1012.4
20260505073003 12 88 6.4 12.9 0.00 0.00 0.00 72 1012.4
20260505072004 12 60 6.4 9.7 0.00 0.00 0.00 74 1012.5
20260505071005 11 39 4.8 9.7 0.00 0.00 0.00 76 1012.5
20260505070007 11 60 6.4 12.9 0.00 0.00 0.00 79 1012.8
20260505065003 11 52 4.8 9.7 0.00 0.00 0.00 86 1012.8
20260505064005 10 47 4.8 11.3 0.00 0.00 0.00 93 1012.7
20260505063216 10 46 4.8 8.0 0.00 0.00 0.00 97 1012.7
20260505062005 8 42 4.8 11.3 0.00 0.00 0.00 99 1012.7
20260505061005 8 83 6.4 8.0 0.00 0.00 0.00 99 1012.9
20260505060004 7 48 6.4 11.3 0.00 0.00 0.00 99 1012.8
20260505055005 6 45 6.4 9.7 0.00 0.00 0.00 99 1012.8
20260505054003 6 48 4.8 6.4 0.00 0.00 0.00 99 1012.9
20260505053004 6 35 1.6 4.8 0.00 0.00 0.00 99 1012.9
20260505052003 6 165 1.6 3.2 0.00 0.00 0.00 99 1013.0
20260505051005 6 73 4.8 6.4 0.00 0.00 0.00 99 1012.9